Regional Weather Roundup
Issued by NWS

Home | Current Version | Previous Version | Text Only | Print | Product List | Glossary On
Versions: 1 2 3 4 5 6 7 8 9 10 11 12 13 14 15 16 17 18 19 20 21 22 23 24 25 26 27 28 29 30 31 32 33 34 35 36 37 38 39 40 41 42 43 44 45 46 47 48 49 50
405
ASUS43 KMKX 281321
RWRWI

WISCONSIN REGIONAL WEATHER ROUNDUP
NATIONAL WEATHER SERVICE MILWAUKEE/SULLIVAN WI
800 AM CDT SUN MAY 28 2017

NOTE: "FAIR" INDICATES FEW OR NO CLOUDS BELOW 12,000 FEET WITH NO
SIGNIFICANT WEATHER AND/OR OBSTRUCTIONS TO VISIBILITY.

WIZ001-002-006>008-014>016-023>028-281400-
NORTHWEST WISCONSIN

CITY           SKY/WX    TMP DP  RH WIND       PRES   REMARKS
SUPERIOR ARPT  NOT AVBL
ASHLAND        CLOUDY    59  50  72 W7        29.68R
HAYWARD        CLOUDY    57  50  77 E3        29.69S
SIREN          CLOUDY    56  51  82 CALM      29.69F
CUMBERLAND     PTSUNNY   57  48  72 S5        29.70F
RICE LAKE      PTSUNNY   59  49  70 CALM      29.72R
CHETEK         PTSUNNY   58  51  78 SW3       29.71R
LADYSMITH      MOSUNNY   60  52  75 SE8       29.73S
EAU CLAIRE     SUNNY     61  52  72 S8        29.71F
MENOMONIE      SUNNY     61  51  70 S6        29.71S
NEW RICHMOND   MOSUNNY   59  49  68 W10       29.71S
OSCEOLA        CLOUDY    60  50  69 W9G16     29.74R
$$

WIZ003>005-009-010-017-018-281400-
NORTH CENTRAL WISCONSIN

CITY           SKY/WX    TMP DP  RH WIND       PRES   REMARKS
MANITOWISH WTR CLOUDY    55  55 100 SE3       29.72F
ARBOR VITAE    CLOUDY    57  55  92 SE3       29.72F
WOODRUFF       CLOUDY    57  55  92 SE3       29.72F
RHINELANDER    CLOUDY    55  52  89 SE5       29.76F
EAGLE RIVER    CLOUDY    54  52  95 CALM      29.74F
LAND O LAKES   LGT RAIN  54  53  96 CALM      29.76F
PHILLIPS       CLOUDY    55  53  94 SE6       29.71F
TOMAHAWK       PTSUNNY   53  51  95 CALM      29.75F
MEDFORD        MOSUNNY   56  51  84 SE5       29.74S
MERRILL        PTSUNNY   55  55  97 CALM      29.75F
$$

WIZ029-030-035-036-043>047-281400-
CENTRAL WISCONSIN

CITY           SKY/WX    TMP DP  RH WIND       PRES   REMARKS
WAUSAU         PTSUNNY   57  53  86 CALM      29.75F
MOSINEE        LGT RAIN  55  54  94 CALM      29.77F
MARSHFIELD     MOSUNNY   58  53  84 S5        29.75F
STEVENS POINT  LGT RAIN  55  55 100 CALM      29.78S
WAUPACA        RAIN      59  56  89 W3        29.78S
WAUTOMA        LGT RAIN  58  56  93 CALM      29.78S
WISC RAPIDS    CLOUDY    58  56  93 S6        29.78F
CAMP DOUGLAS   CLOUDY    58  55  92 CALM      29.76F
$$

WIZ011>013-019>022-031-037>040-048>050-281400-
NORTHEAST WISCONSIN

CITY           SKY/WX    TMP DP  RH WIND       PRES   REMARKS
ANTIGO         LGT RAIN  53  53  98 NW5       29.77F
SHAWANO        LGT RAIN  59  56  89 W5        29.77R
OCONTO         CLOUDY    58  55  89 W5        29.74R
STURGEON BAY   CLOUDY    60  55  83 NW3       29.74R
GREEN BAY      HVY RAIN  58  57  97 SW6       29.77R FOG
MANITOWOC      HVY RAIN  58  55  90 W15       29.77R FOG
APPLETON       DRIZZLE   55  55 100 SW7       29.77R
CLINTONVILLE   DRIZZLE   57  54  88 W5        29.77S
OSHKOSH        LGT RAIN  57  55  93 CALM      29.78R FOG
$$

WIZ032>034-041-042-053>061-281400-
SOUTHWEST WISCONSIN

CITY           SKY/WX    TMP DP  RH WIND       PRES   REMARKS
LA CROSSE      SUNNY     63  57  81 SE8       29.76S
SPARTA         SUNNY     59  56  89 CALM      29.77F
VIROQUA        SUNNY     59  53  78 SW5       29.78S
BOSCOBEL       CLOUDY    61  57  87 CALM      29.79S
PRAIRIE DU CHI MOSUNNY   61  57  86 CALM      29.79S
PLATTEVILLE    CLOUDY    60  58  96 CALM      29.80S
$$

WIZ056-057-062-063-064-067-068-281400-
SOUTH CENTRAL WISCONSIN

CITY           SKY/WX    TMP DP  RH WIND       PRES   REMARKS
REEDSBURG      CLOUDY    57  56  97 CALM      29.77F
BARABOO/DELLS  CLOUDY    57  55  92 CALM      29.78S
LONE ROCK      CLOUDY    60  56  86 W3        29.78S
MINERAL POINT  PTSUNNY   61  59  94 CALM      29.80R
MADISON        CLOUDY    57  55  93 E5        29.77S
MIDDLETON      CLOUDY    59  56  91 CALM      29.79R
WATERTOWN      LGT RAIN  56  56 100 NE5       29.78R
MONROE         CLOUDY    55  55 100 N5        29.79R
JANESVILLE     RAIN      57  57 100 N8        29.77R
$$

WIZ051-052-058>065-066-070>072-281400-
SOUTHEAST WISCONSIN

CITY           SKY/WX    TMP DP  RH WIND       PRES   REMARKS
MILWAUKEE      LGT RAIN  62  56  80 NW3       29.76R
WAUKESHA       RAIN      57  57 100 NW8       29.78R FOG
MILWAUKEE/TIMM RAIN      59  54  82 NW8       29.77S FOG
RACINE         CLOUDY    61  55  81 N3        29.77R
KENOSHA        CLOUDY    61  56  83 SW3       29.75R
FOND DU LAC    RAIN      58  53  84 NW7       29.78R
SHEBOYGAN      HVY RAIN  57  57 100 NW12      29.78R FOG
WEST BEND      HVY RAIN  55  55 100 N7        29.78R
JUNEAU         LGT RAIN  56  54  94 N7        29.79F
$$

LSZ147-162-281400-
LAKE SUPERIOR

STATION/POSITION TIME  TEMP    WIND        PRES    WAVE
                       AIR SEA DIR/SP/G            HT/PER
                 (UTC) (F)     (DEG/KT/KT) (MB)    (FT/S)
W MID LAKE BUOY  1250   47 37  160/ 10/ 10 1004.7F   1
DEVILS ISLAND    1300   61     190/  9/ 13 1004.5R
PORT WING        1240   61     200/  5/  9 1005.1R
SAXON HARBOR     1240   62     170/  3/  6 1004.7F
$$

LMZ867-665-643>646-281400-
LAKE MICHIGAN

STATION/POSITION TIME  TEMP    WIND        PRES    WAVE
                       AIR SEA DIR/SP/G            HT/PER
                 (UTC) (F)     (DEG/KT/KT) (MB)    (FT/S)
CHAMBERS ISLAND  1240   58     270/  2/  3 1006.4S
N MID LAKE BUOY  1250   46 41  330/  4/  4 1007.2F   1
NORTHPORT PIER   1240   54     290/  1/  4 1006.4S
SISTER BAY       1051   55      CALM  /  3   N/A
ALGOMA LAKESHORE 1201             CALM       N/A
KEWAUNEE LAKESHO 1254   61     300/  6/  9 1006.4S
SHEBOYGAN LAKESH 1300   59     320/  4/  5 1008.0R
PORT WASHINGTON  1240   60     290/  7/ 12 1009.1R
ATWATER BUOY     1209   52     250/  4/  6 1007.7R
MILWAUKEE LAKESH 1250   61     300/  3/  4   N/A
S MID LAKE BUOY  1250   53 50  120/  2/  4 1007.5R   0
KENOSHA   LAKESH 1300   58     160/  3/  4 1007.5
$$

TC  - TEMPERATURE IN CELSIUS
VSB - VISIBILITY IN STATUTE MILES
WCI - WIND CHILL INDEX
HX  - HEAT INDEX





USA.gov is the U.S. government's official web portal to all federal, state and local government web resources and services.